Tracking 31027 objects as of 19-Jul-2025
HD Live streaming from Space Station
objects crossing your sky now

OBJECT H

Track OBJECT H now!
10-day predictions


NORAD ID: 42832
Int'l Code: 2017-042H
Perigee: 553.2 km
Apogee: 568.9 km
Inclination: 97.4 °
Period: 95.7 minutes
Semi major axis: 6932 km
RCS: Unknown
Launch date: July 14, 2017
Source: (TBD)
Launch site: TYURATAM MISSILE AND SPACE COMPLEX (TTMTR)
Your satellite tracking list
STARLINK-31879
Track 1 satellite(s)




NASA's NSSDC Master Catalog

Two Line Element Set (TLE):
1 42832U 17042H   25199.44980759  .00002650  00000-0  19461-3 0  9992
2 42832  97.3853   8.2523 0011367 165.7454 194.4095 15.04218988436704
Source of the keplerian elements: AFSPC